Flag for Germany Weather past 2 weeks in Aalen, Baden-Württemberg, Germany

Now
59 °F

Passing clouds.


Feels Like: 60 °F
Forecast: 55 / 75 °F
Wind: 3 mph from Northeast

Location: Stoetten

Current Time: Jul 23, 2014 at 7:57:00 AM

Latest Report: Jul 23, 2014 at 6:00 AM


Visibility: 9 mi

Pressure: 30.00 "Hg

Humidity: 84%

Dew point: 54 °F

Location of AalenLocation

Historic Weather in Aalen — Graph

°F

Aalen temperature yesterday

Maximum temperature yesterday: 70 °F (at 5:00 PM)
Minimum temperature yesterday: 60 °F (at 6:00 AM)
Average temperature yesterday: 63 °F

Past Weeks' High & Low Weather Summary

 TemperatureHumidityPressure
High85 °F (Jul 19, 5:00 PM)100% (Jul 8, 6:00 AM)30.19 "Hg (Jul 8, 6:00 AM)
Low47 °F (Jul 9, 11:00 PM)31% (Jul 18, 4:00 PM)29.78 "Hg (Jul 13, 5:00 PM)
Average63 °F78%29.94 "Hg
* Reported Jul 8 6:00 AM — Jul 23 6:00 AM, Aalen, Weather by CustomWeather, © 2014

Note: Actual official high and low records may vary slightly from our data, if they occured in-between our weather recording intervals... More about our weather records

Advertising

Aalen weather history for previous 24 hours

 ConditionsComfort  
Time TempWeatherWind HumidityBarometerVisibility
6:00 AM
Jul 23
59 °FPassing clouds.3 mph84%30.00 "Hg9 mi
5:00 AM59 °FClear.3 mph86%30.00 "Hg16 mi
4:00 AM58 °FClear.5 mph89%30.00 "Hg15 mi
3:00 AM59 °FClear.5 mph90%30.00 "Hg14 mi
2:00 AM60 °FClear.3 mph99%30.01 "Hg6 mi
7:00 PM
Jul 22
65 °FThunderstorms. Overcast.2 mph96%29.93 "Hg9 mi
6:00 PM67 °FThunderstorms. Overcast.5 mph89%29.91 "Hg10 mi
5:00 PM70 °FThunderstorms. Overcast.3 mph83%29.89 "Hg12 mi
4:00 PM69 °FOvercast.N/A86%29.90 "Hg12 mi
3:00 PM67 °FOvercast.5 mph89%29.90 "Hg10 mi
2:00 PM65 °FLight rain. Overcast.5 mph95%29.91 "Hg7 mi
1:00 PM65 °FLight rain. Overcast.3 mph99%29.90 "Hg6 mi
12:00 PM64 °FLight rain. Overcast.5 mph98%29.90 "Hg5 mi
11:00 AM63 °FOvercast.6 mph99%29.88 "Hg6 mi
10:00 AM62 °FOvercast.6 mph100%29.87 "Hg6 mi
9:00 AM62 °FOvercast.3 mph100%29.85 "Hg5 mi
8:00 AM60 °FRain. Dense fog.3 mph100%29.85 "Hg0 mi
7:00 AM60 °FLight rain. Dense fog.2 mph100%29.84 "Hg1 mi
Weather by CustomWeather, © 2014

See weather overviewHow to use our weather pages